datetime,release volume
1949-03-01,42842.9752
1949-03-02,42446.281
1949-03-03,43438.0165
1949-03-04,42446.281
1949-03-05,42842.9752
1949-03-06,37090.9091
1949-03-07,32727.2727
1949-03-08,42049.5868
1949-03-09,45223.1405
1949-03-10,47008.2645
1949-03-11,46016.5289
1949-03-12,43438.0165
1949-03-13,35107.438
1949-03-14,31338.843
1949-03-15,43438.0165
1949-03-16,45223.1405
1949-03-17,46214.876
1949-03-18,46809.9174
1949-03-19,45818.1818
1949-03-20,41851.2397
1949-03-21,30942.1488
1949-03-22,41057.8512
1949-03-23,44429.7521
1949-03-24,45024.7934
1949-03-25,46016.5289
1949-03-26,45024.7934
1949-03-27,38280.9917
1949-03-28,30743.8017
1949-03-29,40066.1157
1949-03-30,41256.1984
1949-03-31,43041.3223
1949-04-01,43636.3636
1949-04-02,42049.5868
1949-04-03,36892.562
1949-04-04,26578.5124
1949-04-05,39272.7273
1949-04-06,43438.0165
1949-04-07,44033.0579
1949-04-08,44033.0579
1949-04-09,43041.3223
1949-04-10,33917.3554
1949-04-11,25983.4711
1949-04-12,41851.2397
1949-04-13,45619.8347
1949-04-14,46214.876
1949-04-15,46611.5703
1949-04-16,46016.5289
1949-04-17,38082.6446
1949-04-18,26975.2066
1949-04-19,41454.5455
1949-04-20,42446.281
1949-04-21,41256.1984
1949-04-22,42644.6281
1949-04-23,42446.281
1949-04-24,33520.6612
1949-04-25,24991.7355
1949-04-26,41057.8512
1949-04-27,43834.7107
1949-04-28,42049.5868
1949-04-29,41057.8512
1949-04-30,40462.8099
1949-05-01,31537.1901
1949-05-02,23206.6116
1949-05-03,38876.0331
1949-05-04,40859.5041
1949-05-05,39074.3802
1949-05-06,36495.8678
1949-05-07,34909.0909
1949-05-08,27173.5537
1949-05-09,21223.1405
1949-05-10,32528.9256
1949-05-11,35305.7851
1949-05-12,36495.8678
1949-05-13,36694.2149
1949-05-14,36495.8678
1949-05-15,26380.1653
1949-05-16,20033.0579
1949-05-17,33322.3141
1949-05-18,36297.5207
1949-05-19,33719.0083
1949-05-20,32528.9256
1949-05-21,36297.5207
1949-05-22,28958.6777
1949-05-23,25586.7769
1949-05-24,37487.6033
1949-05-25,39669.4215
1949-05-26,39074.3802
1949-05-27,39867.7686
1949-05-28,40661.157
1949-05-29,34115.7025
1949-05-30,22016.5289
1949-05-31,20231.405
1949-06-01,35504.1322
1949-06-02,37487.6033
1949-06-03,36099.1736
1949-06-04,35305.7851
1949-06-05,29950.4132
1949-06-06,19239.6694
1949-06-07,32132.2314
1949-06-08,35305.7851
1949-06-09,35702.4793
1949-06-10,36495.8678
1949-06-11,35504.1322
1949-06-12,28561.9835
1949-06-13,21421.4876
1949-06-14,33520.6612
1949-06-15,36892.562
1949-06-16,37090.9091
1949-06-17,38082.6446
1949-06-18,36694.2149
1949-06-19,27768.595
1949-06-20,21421.4876
1949-06-21,29950.4132
1949-06-22,33917.3554
1949-06-23,36694.2149
1949-06-24,36297.5207
1949-06-25,34909.0909
1949-06-26,30545.4546
1949-06-27,23008.2645
1949-06-28,31338.843
1949-06-29,32528.9256
1949-06-30,32925.6198
1949-07-01,33719.0083
1949-07-02,34512.3967
1949-07-03,27371.9008
1949-07-04,21024.7934
1949-07-05,20033.0579
1949-07-06,32330.5785
1949-07-07,37090.9091
1949-07-08,37685.9504
1949-07-09,38082.6446
1949-07-10,27966.9422
1949-07-11,20826.4463
1949-07-12,34710.7438
1949-07-13,37685.9504
1949-07-14,38082.6446
1949-07-15,38876.0331
1949-07-16,39867.7686
1949-07-17,32925.6198
1949-07-18,24198.3471
1949-07-19,36099.1736
1949-07-20,38082.6446
1949-07-21,38082.6446
1949-07-22,38479.3388
1949-07-23,37090.9091
1949-07-24,30743.8017
1949-07-25,21818.1818
1949-07-26,33520.6612
1949-07-27,37487.6033
1949-07-28,36495.8678
1949-07-29,37090.9091
1949-07-30,37289.2562
1949-07-31,31933.8843
1949-08-01,23801.6529
1949-08-02,33520.6612
1949-08-03,35702.4793
1949-08-04,36297.5207
1949-08-05,36297.5207
1949-08-06,36297.5207
1949-08-07,26380.1653
1949-08-08,19834.7107
1949-08-09,33322.3141
1949-08-10,36099.1736
1949-08-11,36694.2149
1949-08-12,36892.562
1949-08-13,36099.1736
1949-08-14,33520.6612
1949-08-15,22611.5703
1949-08-16,34710.7438
1949-08-17,36495.8678
1949-08-18,37289.2562
1949-08-19,37884.2975
1949-08-20,38082.6446
1949-08-21,30942.1488
1949-08-22,21818.1818
1949-08-23,34710.7438
1949-08-24,37685.9504
1949-08-25,37487.6033
1949-08-26,38280.9917
1949-08-27,38280.9917
1949-08-28,29752.0661
1949-08-29,21619.8347
1949-08-30,36495.8678
1949-08-31,38677.686
1949-09-01,37685.9504
1949-09-02,38082.6446
1949-09-03,38280.9917
1949-09-04,30347.1074
1949-09-05,22413.2231
1949-09-06,21818.1818
1949-09-07,36495.8678
1949-09-08,40661.157
1949-09-09,41454.5455
1949-09-10,42446.281
1949-09-11,39272.7273
1949-09-12,30545.4546
1949-09-13,39074.3802
1949-09-14,41256.1984
1949-09-15,41256.1984
1949-09-16,40859.5041
1949-09-17,41057.8512
1949-09-18,37884.2975
1949-09-19,30942.1488
1949-09-20,39867.7686
1949-09-21,42842.9752
1949-09-22,43239.6694
1949-09-23,42446.281
1949-09-24,43636.3636
1949-09-25,39272.7273
1949-09-26,30743.8017
1949-09-27,39471.0744
1949-09-28,42446.281
1949-09-29,41454.5455
1949-09-30,42049.5868
1949-10-01,42446.281
1949-10-02,39867.7686
1949-10-03,31537.1901
1949-10-04,39272.7273
1949-10-05,40859.5041
1949-10-06,42049.5868
1949-10-07,41652.8926
1949-10-08,41454.5455
1949-10-09,35702.4793
1949-10-10,26380.1653
1949-10-11,38479.3388
1949-10-12,41057.8512
1949-10-13,39867.7686
1949-10-14,41256.1984
1949-10-15,41256.1984
1949-10-16,36297.5207
1949-10-17,28760.3306
1949-10-18,39471.0744
1949-10-19,42842.9752
1949-10-20,44033.0579
1949-10-21,43438.0165
1949-10-22,41851.2397
1949-10-23,34710.7438
1949-10-24,26776.8595
1949-10-25,37884.2975
1949-10-26,40066.1157
1949-10-27,40264.4628
1949-10-28,40462.8099
1949-10-29,39074.3802
1949-10-30,31933.8843
1949-10-31,24991.7355
1949-11-01,36694.2149
1949-11-02,38479.3388
1949-11-03,38280.9917
1949-11-04,39074.3802
1949-11-05,38280.9917
1949-11-06,33123.9669
1949-11-07,24991.7355
1949-11-08,37090.9091
1949-11-09,39669.4215
1949-11-10,39669.4215
1949-11-11,30148.7603
1949-11-12,22016.5289
1949-11-13,18188.4298
1949-11-14,15312.3967
1949-11-15,33123.9669
1949-11-16,34314.0496
1949-11-17,37289.2562
1949-11-18,38876.0331
1949-11-19,39272.7273
1949-11-20,30743.8017
1949-11-21,26181.8182
1949-11-22,39867.7686
1949-11-23,41652.8926
1949-11-24,40264.4628
1949-11-25,26181.8182
1949-11-26,33322.3141
1949-11-27,32528.9256
1949-11-28,25785.124
1949-11-29,40462.8099
1949-11-30,42446.281
1949-12-01,42247.9339
1949-12-02,44033.0579
1949-12-03,43438.0165
1949-12-04,39867.7686
1949-12-05,33719.0083
1949-12-06,42049.5868
1949-12-07,45223.1405
1949-12-08,45619.8347
1949-12-09,46016.5289
1949-12-10,45223.1405
1949-12-11,42644.6281
1949-12-12,38677.686
1949-12-13,44429.7521
1949-12-14,43239.6694
1949-12-15,42247.9339
1949-12-16,41851.2397
1949-12-17,42049.5868
1949-12-18,33917.3554
1949-12-19,27966.9422
1949-12-20,41057.8512
1949-12-21,44033.0579
1949-12-22,44231.405
1949-12-23,43636.3636
1949-12-24,41057.8512
1949-12-25,31735.5372
1949-12-26,24595.0413
1949-12-27,24793.3884
1949-12-28,39669.4215
1949-12-29,42247.9339
1949-12-30,42842.9752
1949-12-31,41652.8926
1950-01-01,30942.1488
1950-01-02,23603.3058
1950-01-03,26181.8182
1950-01-04,41851.2397
1950-01-05,45421.4876
1950-01-06,46016.5289
1950-01-07,45421.4876
1950-01-08,34512.3967
1950-01-09,26578.5124
1950-01-10,41652.8926
1950-01-11,45818.1818
1950-01-12,45818.1818
1950-01-13,45421.4876
1950-01-14,46413.2231
1950-01-15,41057.8512
1950-01-16,30743.8017
1950-01-17,34512.3967
1950-01-18,33123.9669
1950-01-19,23801.6529
1950-01-20,14697.5207
1950-01-21,14657.8512
1950-01-22,16621.4876
1950-01-23,18168.595
1950-01-24,21421.4876
1950-01-25,24595.0413
1950-01-26,27570.2479
1950-01-27,30545.4546
1950-01-28,32925.6198
1950-01-29,34710.7438
1950-01-30,35107.438
1950-01-31,36892.562
1950-02-01,38280.9917
1950-02-02,39074.3802
1950-02-03,40066.1157
1950-02-04,40859.5041
1950-02-05,40066.1157
1950-02-06,39272.7273
1950-02-07,40066.1157
1950-02-08,40264.4628
1950-02-09,40859.5041
1950-02-10,40859.5041
1950-02-11,40859.5041
1950-02-12,39669.4215
1950-02-13,38677.686
1950-02-14,38876.0331
1950-02-15,39669.4215
1950-02-16,40264.4628
1950-02-17,41057.8512
1950-02-18,41454.5455
1950-02-19,41057.8512
1950-02-20,40066.1157
1950-02-21,39867.7686
1950-02-22,39669.4215
1950-02-23,40066.1157
1950-02-24,40462.8099
1950-02-25,40462.8099
1950-02-26,39074.3802
1950-02-27,38280.9917
1950-02-28,39272.7273
1950-03-01,40026.4463
1950-03-02,40720.6612
1950-03-03,41256.1984
1950-03-04,41494.2149
1950-03-05,40800.0
1950-03-06,39649.5868
1950-03-07,40105.7851
1950-03-08,40264.4628
1950-03-09,40720.6612
1950-03-10,41474.3802
1950-03-11,41871.0744
1950-03-12,41168.9256
1950-03-13,39867.7686
1950-03-14,40641.3223
1950-03-15,41414.876
1950-03-16,41811.5703
1950-03-17,42347.1074
1950-03-18,42505.7851
1950-03-19,41652.8926
1950-03-20,39867.7686
1950-03-21,39570.2479
1950-03-22,39411.5703
1950-03-23,39411.5703
1950-03-24,39054.5455
1950-03-25,39332.2314
1950-03-26,38201.6529
1950-03-27,36634.7107
1950-03-28,36932.2314
1950-03-29,37527.2727
1950-03-30,37229.7521
1950-03-31,37309.0909
1950-04-01,36714.0496
1950-04-02,35385.124
1950-04-03,24297.5207
1950-04-04,24218.1818
1950-04-05,29474.3802
1950-04-06,30704.1322
1950-04-07,31695.8678
1950-04-08,32052.8926
1950-04-09,31993.3884
1950-04-10,31914.0496
1950-04-11,33064.4628
1950-04-12,33917.3554
1950-04-13,34353.719
1950-04-14,34790.0826
1950-04-15,34948.7603
1950-04-16,34274.3802
1950-04-17,33778.5124
1950-04-18,33996.6942
1950-04-19,34512.3967
1950-04-20,34948.7603
1950-04-21,35742.1488
1950-04-22,36634.7107
1950-04-23,36119.0083
1950-04-24,35464.4628
1950-04-25,35900.8265
1950-04-26,36198.3471
1950-04-27,36634.7107
1950-04-28,37983.4711
1950-04-29,39411.5703
1950-04-30,38578.5124
1950-05-01,37685.9504
1950-05-02,37685.9504
1950-05-03,38439.6694
1950-05-04,38816.5289
1950-05-05,39193.3884
1950-05-06,39114.0496
1950-05-07,38201.6529
1950-05-08,37150.4132
1950-05-09,37685.9504
1950-05-10,37685.9504
1950-05-11,37685.9504
1950-05-12,37685.9504
1950-05-13,37527.2727
1950-05-14,36198.3471
1950-05-15,36634.7107
1950-05-16,36495.8678
1950-05-17,36495.8678
1950-05-18,36773.5537
1950-05-19,37011.5703
1950-05-20,37071.0744
1950-05-21,36773.5537
1950-05-22,36039.6694
1950-05-23,36257.8512
1950-05-24,36198.3471
1950-05-25,36634.7107
1950-05-26,36852.8926
1950-05-27,37309.0909
1950-05-28,36714.0496
1950-05-29,35900.8265
1950-05-30,15788.4298
1950-05-31,33838.0165
1950-06-01,34274.3802
1950-06-02,36495.8678
1950-06-03,38142.1488
1950-06-04,36852.8926
1950-06-05,34056.1984
1950-06-06,31636.3636
1950-06-07,31854.5455
1950-06-08,32925.6198
1950-06-09,32628.0992
1950-06-10,32052.8926
1950-06-11,31695.8678
1950-06-12,30922.3141
1950-06-13,30089.2562
1950-06-14,29196.6942
1950-06-15,29593.3884
1950-06-16,29672.7273
1950-06-17,29811.5703
1950-06-18,29315.7025
1950-06-19,29315.7025
1950-06-20,29672.7273
1950-06-21,29811.5703
1950-06-22,30228.0992
1950-06-23,30981.8182
1950-06-24,31854.5455
1950-06-25,31497.5207
1950-06-26,30862.8099
1950-06-27,30981.8182
1950-06-28,30862.8099
1950-06-29,31775.2066
1950-06-30,32052.8926
1950-07-01,32132.2314
1950-07-02,31497.5207
1950-07-03,31279.3388
1950-07-04,31061.157
1950-07-05,30704.1322
1950-07-06,32132.2314
1950-07-07,31854.5455
1950-07-08,31775.2066
1950-07-09,31695.8678
1950-07-10,31200.0
1950-07-11,31497.5207
1950-07-12,31775.2066
1950-07-13,30981.8182
1950-07-14,31061.157
1950-07-15,31279.3388
1950-07-16,31200.0
1950-07-17,30862.8099
1950-07-18,30981.8182
1950-07-19,31279.3388
1950-07-20,31418.1818
1950-07-21,31695.8678
1950-07-22,31854.5455
1950-07-23,31636.3636
1950-07-24,22254.5455
1950-07-25,31636.3636
1950-07-26,31854.5455
1950-07-27,32052.8926
1950-07-28,32271.0744
1950-07-29,32330.5785
1950-07-30,31854.5455
1950-07-31,7358.67769
1950-08-01,2201.65289
1950-08-02,2221.4876
1950-08-03,654.54545
1950-08-04,1170.24793
1950-08-05,16621.4876
1950-08-06,22611.5703
1950-08-07,22790.0826
1950-08-08,25804.9587
1950-08-09,28700.8265
1950-08-10,30505.7851
1950-08-11,31557.0248
1950-08-12,33282.6446
1950-08-13,32925.6198
1950-08-14,32489.2562
1950-08-15,32846.281
1950-08-16,33639.6694
1950-08-17,33560.3306
1950-08-18,33639.6694
1950-08-19,33560.3306
1950-08-20,34214.876
1950-08-21,33639.6694
1950-08-22,33480.9917
1950-08-23,33639.6694
1950-08-24,17454.5455
1950-08-25,33703.1405
1950-08-26,34135.5372
1950-08-27,34651.2397
1950-08-28,33778.5124
1950-08-29,33699.1736
1950-08-30,33560.3306
1950-08-31,33480.9917
1950-09-01,33342.1488
1950-09-02,33282.6446
1950-09-03,32766.9422
1950-09-04,31775.2066
1950-09-05,30644.6281
1950-09-06,29811.5703
1950-09-07,30585.124
1950-09-08,27907.438
1950-09-09,2479.33884
1950-09-10,24039.6694
1950-09-11,23047.9339
1950-09-12,21798.3471
1950-09-13,22730.5785
1950-09-14,22452.8926
1950-09-15,22790.0826
1950-09-16,22909.0909
1950-09-17,22909.0909
1950-09-18,9044.6281
1950-09-19,6009.91736
1950-09-20,23761.9835
1950-09-21,24039.6694
1950-09-22,24099.1736
1950-09-23,25923.9669
1950-09-24,26657.8512
1950-09-25,26578.5124
1950-09-26,10195.0413
1950-09-27,6148.76033
1950-09-28,27570.2479
1950-09-29,27629.7521
1950-09-30,27490.9091
1950-10-01,27411.5703
1950-10-02,15550.4132
1950-10-03,24614.876
1950-10-04,24793.3884
1950-10-05,24813.2231
1950-10-06,25011.5703
1950-10-07,25209.9174
1950-10-08,25209.9174
1950-10-09,25209.9174
1950-10-10,26003.3058
1950-10-11,26062.8099
1950-10-12,26459.5041
1950-10-13,26519.0083
1950-10-14,26856.1984
1950-10-15,26578.5124
1950-10-16,26320.6612
1950-10-17,24495.8678
1950-10-18,23365.2893
1950-10-19,23365.2893
1950-10-20,22591.7355
1950-10-21,20846.281
1950-10-22,20846.281
1950-10-23,20786.7769
1950-10-24,20846.281
1950-10-25,20985.124
1950-10-26,11523.9669
1950-10-27,20033.0579
1950-10-28,20092.562
1950-10-29,20033.0579
1950-10-30,20033.0579
1950-10-31,11761.9835
1950-11-01,21738.843
1950-11-02,22393.3884
1950-11-03,22393.3884
1950-11-04,22532.2314
1950-11-05,22591.7355
1950-11-06,13110.7438
1950-11-07,13289.2562
1950-11-08,29117.3554
1950-11-09,28502.4793
1950-11-10,28581.8182
1950-11-11,26915.7025
1950-11-12,25666.1157
1950-11-13,21679.3388
1950-11-14,19775.2066
1950-11-15,19834.7107
1950-11-16,17315.7025
1950-11-17,13745.4546
1950-11-18,12912.3967
1950-11-19,14201.6529
1950-11-20,13804.9587
1950-11-21,13923.9669
1950-11-22,14261.157
1950-11-23,13923.9669
1950-11-24,12158.6777
1950-11-25,11623.1405
1950-11-26,13090.9091
1950-11-27,14102.4793
1950-11-28,11900.8265
1950-11-29,19527.2727
1950-11-30,21361.9835
1950-12-01,22532.2314
1950-12-02,21104.1322
1950-12-03,21064.4628
1950-12-04,19775.2066
1950-12-05,18168.595
1950-12-06,18922.3141
1950-12-07,19596.6942
1950-12-08,19100.8265
1950-12-09,18604.9587
1950-12-10,18664.4628
1950-12-11,18604.9587
1950-12-12,19398.3471
1950-12-13,13884.2975
1950-12-14,20985.124
1950-12-15,20310.7438
1950-12-16,18109.0909
1950-12-17,18109.0909
1950-12-18,18803.3058
1950-12-19,19953.719
1950-12-20,20528.9256
1950-12-21,20846.281
1950-12-22,20409.9174
1950-12-23,18783.4711
1950-12-24,18664.4628
1950-12-25,18922.3141
1950-12-26,17990.0826
1950-12-27,10314.0496
1950-12-28,21619.8347
1950-12-29,20152.0661
1950-12-30,18485.9504
1950-12-31,18545.4546
1951-01-01,18664.4628
1951-01-02,18922.3141
1951-01-03,19279.3388
1951-01-04,20409.9174
1951-01-05,19715.7025
1951-01-06,21044.6281
1951-01-07,23702.4793
1951-01-08,17057.8512
1951-01-09,18922.3141
1951-01-10,19041.3223
1951-01-11,18922.3141
1951-01-12,18366.9422
1951-01-13,17256.1984
1951-01-14,16244.6281
1951-01-15,17811.5703
1951-01-16,17692.562
1951-01-17,17990.0826
1951-01-18,18664.4628
1951-01-19,18922.3141
1951-01-20,18664.4628
1951-01-21,19279.3388
1951-01-22,19041.3223
1951-01-23,18426.4463
1951-01-24,19279.3388
1951-01-25,18842.9752
1951-01-26,18981.8182
1951-01-27,19100.8265
1951-01-28,18842.9752
1951-01-29,18842.9752
1951-01-30,18842.9752
1951-01-31,19715.7025
1951-02-01,19100.8265
1951-02-02,19219.8347
1951-02-03,19160.3306
1951-02-04,19219.8347
1951-02-05,18922.3141
1951-02-06,19041.3223
1951-02-07,18604.9587
1951-02-08,19834.7107
1951-02-09,18842.9752
1951-02-10,18922.3141
1951-02-11,18922.3141
1951-02-12,18922.3141
1951-02-13,18842.9752
1951-02-14,18783.4711
1951-02-15,19279.3388
1951-02-16,19894.2149
1951-02-17,19834.7107
1951-02-18,20211.5703
1951-02-19,20033.0579
1951-02-20,20092.562
1951-02-21,19953.719
1951-02-22,20350.4132
1951-02-23,20152.0661
1951-02-24,20092.562
1951-02-25,20271.0744
1951-02-26,20152.0661
1951-02-27,20211.5703
1951-02-28,20528.9256
1951-03-01,20727.2727
1951-03-02,20846.281
1951-03-03,20667.7686
1951-03-04,20528.9256
1951-03-05,21223.1405
1951-03-06,21163.6364
1951-03-07,21361.9835
1951-03-08,21679.3388
1951-03-09,22730.5785
1951-03-10,21738.843
1951-03-11,21540.4959
1951-03-12,21937.1901
1951-03-13,22333.8843
1951-03-14,22135.5372
1951-03-15,22591.7355
1951-03-16,29117.3554
1951-03-17,28026.4463
1951-03-18,26915.7025
1951-03-19,27907.438
1951-03-20,27828.0992
1951-03-21,27768.595
1951-03-22,28780.1653
1951-03-23,29117.3554
1951-03-24,28978.5124
1951-03-25,30307.438
1951-03-26,31775.2066
1951-03-27,31695.8678
1951-03-28,33262.8099
1951-03-29,33480.9917
1951-03-30,33480.9917
1951-03-31,32925.6198
1951-04-01,34056.1984
1951-04-02,35087.6033
1951-04-03,36257.8512
1951-04-04,36714.0496
1951-04-05,36257.8512
1951-04-06,34214.876
1951-04-07,33996.6942
1951-04-08,34353.719
1951-04-09,33996.6942
1951-04-10,34214.876
1951-04-11,34790.0826
1951-04-12,30505.7851
1951-04-13,33560.3306
1951-04-14,27907.438
1951-04-15,25150.4132
1951-04-16,28363.6364
1951-04-17,22849.5868
1951-04-18,22988.4298
1951-04-19,22056.1984
1951-04-20,23246.281
1951-04-21,23047.9339
1951-04-22,20985.124
1951-04-23,25725.6198
1951-04-24,25348.7603
1951-04-25,24495.8678
1951-04-26,24158.6777
1951-04-27,24416.5289
1951-04-28,24476.0331
1951-04-29,21044.6281
1951-04-30,22651.2397
1951-05-01,23047.9339
1951-05-02,22730.5785
1951-05-03,23563.6364
1951-05-04,23563.6364
1951-05-05,22651.2397
1951-05-06,21163.6364
1951-05-07,22056.1984
1951-05-08,24099.1736
1951-05-09,24357.0248
1951-05-10,23702.4793
1951-05-11,22988.4298
1951-05-12,22135.5372
1951-05-13,17930.5785
1951-05-14,21619.8347
1951-05-15,20092.562
1951-05-16,22393.3884
1951-05-17,22591.7355
1951-05-18,22909.0909
1951-05-19,22195.0413
1951-05-20,19398.3471
1951-05-21,23504.1322
1951-05-22,24555.3719
1951-05-23,24753.719
1951-05-24,25348.7603
1951-05-25,26142.1488
1951-05-26,24515.7025
1951-05-27,19576.8595
1951-05-28,26638.0165
1951-05-29,28343.8017
1951-05-30,28819.8347
1951-05-31,29315.7025
1951-06-01,28958.6777
1951-06-02,25408.2645
1951-06-03,19120.6612
1951-06-04,30247.9339
1951-06-05,30842.9752
1951-06-06,31834.7107
1951-06-07,31358.6777
1951-06-08,26082.6446
1951-06-09,25408.2645
1951-06-10,18942.1488
1951-06-11,26360.3306
1951-06-12,31418.1818
1951-06-13,33857.8512
1951-06-14,32965.2893
1951-06-15,33441.3223
1951-06-16,27252.8926
1951-06-17,22968.595
1951-06-18,35940.4959
1951-06-19,36793.3884
1951-06-20,34095.8678
1951-06-21,34750.4132
1951-06-22,34512.3967
1951-06-23,28125.6198
1951-06-24,22314.0496
1951-06-25,38181.8182
1951-06-26,37170.2479
1951-06-27,37348.7603
1951-06-28,32290.9091
1951-06-29,31259.5041
1951-06-30,27709.0909
1951-07-01,23137.1901
1951-07-02,32388.0992
1951-07-03,33306.4463
1951-07-04,33155.7025
1951-07-05,34145.4546
1951-07-06,24971.9008
1951-07-07,27173.5537
1951-07-08,23523.9669
1951-07-09,34661.157
1951-07-10,34284.2975
1951-07-11,34958.6777
1951-07-12,36608.9256
1951-07-13,37451.9008
1951-07-14,27274.7107
1951-07-15,24182.4793
1951-07-16,34472.7273
1951-07-17,34343.8017
1951-07-18,33679.3388
1951-07-19,34542.1488
1951-07-20,34532.2314
1951-07-21,27560.3306
1951-07-22,26330.5785
1951-07-23,31487.6033
1951-07-24,33907.438
1951-07-25,34661.157
1951-07-26,34165.2893
1951-07-27,28442.9752
1951-07-28,23206.6116
1951-07-29,19209.9174
1951-07-30,30634.7107
1951-07-31,30783.4711
1951-08-01,31527.2727
1951-08-02,31814.876
1951-08-03,27758.6777
1951-08-04,27371.9008
1951-08-05,24148.7603
1951-08-06,29603.3058
1951-08-07,30347.1074
1951-08-08,30327.2727
1951-08-09,32826.4463
1951-08-10,30069.4215
1951-08-11,29563.6364
1951-08-12,30039.6694
1951-08-13,31080.9917
1951-08-14,31824.7934
1951-08-15,31408.2645
1951-08-16,29980.1653
1951-08-17,29861.157
1951-08-18,30218.1818
1951-08-19,30039.6694
1951-08-20,33133.8843
1951-08-21,31239.6694
1951-08-22,30971.9008
1951-08-23,30366.9422
1951-08-24,29702.4793
1951-08-25,30089.2562
1951-08-26,29533.8843
1951-08-27,22076.0331
1951-08-28,11508.0992
1951-08-29,13485.6198
1951-08-30,13100.8265
1951-08-31,19568.9256
1951-09-01,25763.3058
1951-09-02,24267.7686
1951-09-03,26570.5785
1951-09-04,26657.8512
1951-09-05,25606.6116
1951-09-06,25279.3388
1951-09-07,25497.5207
1951-09-08,26390.0826
1951-09-09,26469.4215
1951-09-10,24783.4711
1951-09-11,23732.2314
1951-09-12,24059.5041
1951-09-13,22611.5703
1951-09-14,23464.4628
1951-09-15,23345.4546
1951-09-16,22542.1488
1951-09-17,23097.5207
1951-09-18,22561.9835
1951-09-19,23127.2727
1951-09-20,22958.6777
1951-09-21,22571.9008
1951-09-22,22968.595
1951-09-23,22204.9587
1951-09-24,21223.1405
1951-09-25,28869.4215
1951-09-26,29077.686
1951-09-27,29018.1818
1951-09-28,28343.8017
1951-09-29,26667.7686
1951-09-30,24862.8099
1951-10-01,26717.3554
1951-10-02,29008.2645
1951-10-03,28928.9256
1951-10-04,28671.0744
1951-10-05,24892.562
1951-10-06,22173.2231
1951-10-07,22224.7934
1951-10-08,24357.0248
1951-10-09,25299.1736
1951-10-10,25517.3554
1951-10-11,25001.6529
1951-10-12,25011.5703
1951-10-13,23682.6446
1951-10-14,21262.8099
1951-10-15,24604.9587
1951-10-16,25646.281
1951-10-17,29117.3554
1951-10-18,28790.0826
1951-10-19,25418.1818
1951-10-20,26743.1405
1951-10-21,22187.1074
1951-10-22,24906.4463
1951-10-23,26360.3306
1951-10-24,26628.0992
1951-10-25,26796.6942
1951-10-26,25606.6116
1951-10-27,25428.0992
1951-10-28,22938.843
1951-10-29,23593.3884
1951-10-30,24218.1818
1951-10-31,25110.7438
1951-11-01,26221.4876
1951-11-02,23831.405
1951-11-03,22423.1405
1951-11-04,20608.2645
1951-11-05,22532.2314
1951-11-06,23176.8595
1951-11-07,23742.1488
1951-11-08,24089.2562
1951-11-09,23811.5703
1951-11-10,22492.562
1951-11-11,18674.3802
1951-11-12,18446.281
1951-11-13,19953.719
1951-11-14,19537.1901
1951-11-15,20062.8099
1951-11-16,19596.6942
1951-11-17,18684.2975
1951-11-18,17533.8843
1951-11-19,18495.8678
1951-11-20,19824.7934
1951-11-21,20013.2231
1951-11-22,18952.0661
1951-11-23,19517.3554
1951-11-24,19190.0826
1951-11-25,18932.2314
1951-11-26,19239.6694
1951-11-27,19705.7851
1951-11-28,17593.3884
1951-11-29,17365.2893
1951-11-30,19041.3223
1951-12-01,18347.1074
1951-12-02,17474.3802
1951-12-03,20538.843
1951-12-04,21014.876
1951-12-05,21510.7438
1951-12-06,20683.6364
1951-12-07,21925.2893
1951-12-08,20868.0992
1951-12-09,19680.0
1951-12-10,25285.2893
1951-12-11,28385.4546
1951-12-12,30103.1405
1951-12-13,29075.7025
1951-12-14,29779.8347
1951-12-15,28752.3967
1951-12-16,27613.8843
1951-12-17,27008.9256
1951-12-18,26832.3967
1951-12-19,27346.1157
1951-12-20,27986.7769
1951-12-21,27586.1157
1951-12-22,28016.5289
1951-12-23,25535.2066
1951-12-24,25864.4628
1951-12-25,21346.1157
1951-12-26,26675.7025
1951-12-27,28748.4298
1951-12-28,28202.9752
1951-12-29,26213.5537
1951-12-30,22528.2645
1951-12-31,24997.686
1952-01-01,19983.4711
1952-01-02,28560.0
1952-01-03,34492.562
1952-01-04,38731.2397
1952-01-05,31824.7934
1952-01-06,24702.1488
1952-01-07,29069.7521
1952-01-08,31846.6116
1952-01-09,32013.2231
1952-01-10,32638.0165
1952-01-11,35664.7934
1952-01-12,35855.2066
1952-01-13,28867.438
1952-01-14,36606.9422
1952-01-15,38340.4959
1952-01-16,37997.3554
1952-01-17,40970.5785
1952-01-18,40258.5124
1952-01-19,38304.7934
1952-01-20,25707.7686
1952-01-21,40103.8017
1952-01-22,38665.7851
1952-01-23,39149.7521
1952-01-24,39730.9091
1952-01-25,39512.7273
1952-01-26,38723.3058
1952-01-27,25043.3058
1952-01-28,37104.7934
1952-01-29,41222.4793
1952-01-30,43340.8265
1952-01-31,42287.6033
1952-02-01,39326.281
1952-02-02,37824.7934
1952-02-03,38223.4711
1952-02-04,42789.4215
1952-02-05,44999.0083
1952-02-06,44179.8347
1952-02-07,44019.1736
1952-02-08,45072.3967
1952-02-09,38959.3388
1952-02-10,33957.0248
1952-02-11,41520.0
1952-02-12,37685.9504
1952-02-13,38693.5537
1952-02-14,38150.0826
1952-02-15,38657.8512
1952-02-16,33722.9752
1952-02-17,29168.9256
1952-02-18,43152.3967
1952-02-19,42654.5455
1952-02-20,43170.2479
1952-02-21,46516.3636
1952-02-22,47531.9008
1952-02-23,46647.2727
1952-02-24,36805.2893
1952-02-25,44673.719
1952-02-26,44261.157
1952-02-27,44110.4132